[[{"header":{"parameterUnit":"m.s-1","parameterCategory":1,"la1":30.2992,"la2":30.254,"lo1":-89.0895,"lo2":-89.0443,"dy":0.0025,"dx":0.0025,"nx":19,"ny":19,"refTime":"2026-05-18T21:00:00:Z","depth":0,"parameterNumber":2,"parameterNumberName":"U-component_of_WINDS"},"data":[0,0,0,-4.3454,-4.3456,-4.3514,-4.3514,-4.3609,-4.361,0,0,0,0,0,0,0,0,0,0,0,-4.345,-4.3451,-4.3454,-4.3456,-4.3514,-4.3514,-4.3609,-4.3611,0,0,0,0,0,0,0,0,0,0,0,-4.345,-4.3451,-4.3452,-4.3456,-4.3514,-4.3514,-4.3609,-4.3558,0,0,0,0,0,0,0,0,0,0,-4.3498,-4.3506,-4.3451,-4.3452,-4.3457,-4.3514,-4.3514,-4.3555,-4.3561,-4.3593,0,-4.3624,0,-4.3619,-4.3618,-4.3619,0,0,0,-4.3447,-4.3501,-4.3506,-4.3452,-4.3457,-4.3514,-4.3485,-4.3558,-4.3565,-4.3601,-4.3625,-4.3628,-4.3621,-4.3619,-4.362,-4.3834,-4.3836,0,0,-4.3443,-4.3467,-4.3501,-4.3511,-4.3503,-4.3483,-4.3487,-4.3562,-4.359,-4.3625,-4.363,-4.3622,-4.362,-4.3621,-4.3833,-4.3835,0,0,0,-4.3441,-4.3465,-4.3467,-4.3507,-4.3516,-4.3485,-4.3489,-4.3586,-4.3585,-4.3631,-4.3623,-4.362,-4.3622,-4.3831,-4.3833,-4.3926,0,0,0,-4.3438,-4.3463,-4.3466,-4.3481,-4.3515,-4.3552,-4.3512,-4.358,-4.3587,-4.3623,-4.3621,-4.3623,-4.3829,-4.3832,-4.392,-4.3965,0,0,0,-4.3442,-4.3464,-4.3476,-4.3482,-4.3508,-4.355,-4.3553,-4.3581,-4.3584,-4.3619,-4.3623,-4.3828,-4.3832,-4.3915,-4.3956,-4.4027,0,0,0,-4.3452,-4.3558,-4.3478,-4.3594,-4.3508,-4.3608,-4.3552,-4.3625,-4.3667,-4.3621,-4.383,-4.3833,-4.3913,-4.395,-4.4021,-4.4089,-4.412,0,0,-4.3598,-4.3576,-4.3643,-4.3573,-4.3693,-4.3597,-4.3732,-4.3747,-4.3729,-4.3801,-4.3805,-4.3922,-4.3955,-4.4026,-4.4291,-4.4316,0,0,0,-4.3697,-4.3744,-4.3771,-4.3812,-4.3828,-4.3845,-4.3838,-4.3845,-4.3904,-4.3771,-4.3968,-4.3987,-4.4027,-4.4058,-4.4079,-4.4112,-4.3849,-4.3849,-4.3849,-4.3934,-4.3907,-4.4015,-4.3996,-4.4037,-4.4031,-4.4062,-4.407,-4.4029,-4.4077,-4.4096,-4.4261,-4.4298,-4.4314,-4.4348,-4.4133,-4.4133,-4.4134,-4.4134,-4.4143,-4.4205,-4.4153,-4.4238,-4.4211,-4.4283,-4.4283,-4.4253,-4.4316,-4.4243,-4.4278,-4.4197,-4.4342,-4.437,-4.4141,-4.4139,-4.4139,-4.4138,-4.4137,-4.4291,-4.4317,-4.4325,-4.4383,-4.4432,-4.4411,-4.4475,-4.4447,-4.4422,-4.4457,-4.4473,-4.4472,-4.4464,-4.4468,-4.4468,-4.4469,-4.4469,-4.447,-4.447,-4.4441,-4.4447,-4.4503,-4.4533,-4.4557,-4.4586,-4.4585,-4.4608,-4.4626,-4.4602,-4.4602,-4.4556,-4.4363,-4.4312,-4.4479,-4.4477,-4.4476,-4.4475,-4.4475,-4.4655,-4.4604,-4.4691,-4.4716,-4.4749,-4.48,-4.4767,-4.4817,-4.4833,-4.4866,-4.4816,-4.4678,-4.4652,-4.4635,-4.4593,-4.4822,-4.4822,-4.4822,-4.4822,-4.4778,-4.4765,-4.4849,-4.489,-4.4928,-4.4909,-4.5009,-4.5012,-4.5006,-4.5014,-4.4979,-4.4922,-4.4906,-4.489,-4.4868,-4.4828,-4.5111,-4.5112,-4.5112,-4.4908,-4.4897,-4.4987,-4.4981,-4.5007,-4.5029,-4.5123,-4.5174,-4.5157,-4.5123,-4.502,-4.5008,-4.4916,-4.4889,-4.4846,-4.4812,-4.4738,0,0]},{"header":{"parameterUnit":"m.s-1","parameterCategory":1,"la1":30.2992,"la2":30.254,"lo1":-89.0895,"lo2":-89.0443,"dy":0.0025,"dx":0.0025,"nx":19,"ny":19,"refTime":"2026-05-18T21:00:00:Z","depth":0,"parameterNumber":3,"parameterNumberName":"V-component_of_WINDS"},"data":[0,0,0,2.7931,2.7933,2.8035,2.8036,2.8135,2.8136,0,0,0,0,0,0,0,0,0,0,0,2.7883,2.7883,2.7931,2.7933,2.8035,2.8036,2.8135,2.8136,0,0,0,0,0,0,0,0,0,0,0,2.7883,2.7883,2.7884,2.7933,2.8035,2.8036,2.8135,2.8069,0,0,0,0,0,0,0,0,0,0,2.7974,2.7913,2.7883,2.7884,2.7934,2.8035,2.8036,2.8066,2.8073,2.8076,0,2.8076,0,2.8107,2.8141,2.8141,0,0,0,2.7946,2.7908,2.7951,2.7884,2.7935,2.8035,2.7993,2.807,2.8078,2.8085,2.8077,2.8082,2.8109,2.8141,2.8141,2.8124,2.8123,0,0,2.794,2.7892,2.7946,2.7956,2.794,2.7989,2.7996,2.8075,2.8063,2.8078,2.8085,2.8111,2.8142,2.8142,2.8124,2.8124,0,0,0,2.7915,2.7887,2.793,2.7951,2.7972,2.7992,2.7999,2.806,2.8078,2.8086,2.8112,2.8142,2.8143,2.8125,2.8124,2.8046,0,0,0,2.7913,2.7873,2.7927,2.7898,2.797,2.8017,2.7981,2.8072,2.8083,2.8111,2.8142,2.8144,2.8126,2.8125,2.805,2.8016,0,0,0,2.7883,2.787,2.7879,2.7895,2.7938,2.8017,2.804,2.8076,2.8098,2.8141,2.8144,2.8127,2.8125,2.8053,2.8022,2.7998,0,0,0,2.7836,2.7806,2.7877,2.7853,2.7937,2.7968,2.804,2.8066,2.8093,2.8142,2.8126,2.8124,2.8054,2.8025,2.8001,2.7969,2.7952,0,0,2.7771,2.7796,2.7786,2.7853,2.786,2.7957,2.7952,2.8022,2.8068,2.8102,2.8102,2.8048,2.8022,2.7999,2.7869,2.7855,0,0,0,2.7749,2.7741,2.7754,2.7779,2.7833,2.7877,2.7953,2.7979,2.8011,2.8077,2.8035,2.8021,2.8009,2.7996,2.7983,2.7976,2.8116,2.8116,2.8117,2.7586,2.7651,2.7638,2.7715,2.7738,2.7819,2.7843,2.7892,2.7947,2.7937,2.7947,2.7861,2.7843,2.7835,2.7826,2.7935,2.7935,2.7935,2.7935,2.7496,2.7496,2.7573,2.7589,2.7657,2.767,2.7746,2.7785,2.7807,2.7858,2.7851,2.79,2.7817,2.7813,2.7929,2.793,2.7931,2.7931,2.7932,2.7397,2.7408,2.7442,2.7487,2.7514,2.7592,2.761,2.7671,2.7727,2.772,2.7737,2.7739,2.7748,2.7724,2.7724,2.7724,2.7723,2.7723,2.7723,2.728,2.7321,2.733,2.7387,2.7412,2.7453,2.7534,2.756,2.7603,2.7646,2.7646,2.7703,2.7797,2.782,2.7719,2.7719,2.772,2.772,2.7721,2.7165,2.7201,2.7215,2.724,2.7312,2.7335,2.7413,2.7461,2.7491,2.7497,2.7557,2.7617,2.7646,2.7656,2.7675,2.7543,2.7543,2.7543,2.7543,2.7081,2.7103,2.7131,2.7168,2.7211,2.7283,2.7295,2.7358,2.7428,2.745,2.7478,2.7509,2.7517,2.7541,2.7554,2.7573,2.7417,2.7417,2.7417,2.7014,2.7043,2.7042,2.7114,2.7175,2.7226,2.724,2.7277,2.7364,2.7413,2.7469,2.7475,2.7524,2.7537,2.7586,2.7605,2.764,0,0]}]]